Lid_Strength_Index
10 9 10 9 7 7 8 6 3 2 2 2 2 2 3 3 3 3 4 4 4 5 5 6 8 9 10 11 11 12 13 14 13 14 14 13 11 11 11 10 10 10 8
11 10 10 10 8 7 8 6 4 2 2 2 2 2 2 3 3 3 4 4 4 4 5 6 8 9 10 11 12 12 13 14 13 14 14 15 13 11 11 11 11 11 9
12 11 11 11 10 8 7 7 3 2 2 1 1 3 3 4 3 4 4 4 4 5 5 6 7 8 9 10 11 12 11 13 11 12 13 15 14 12 11 12 11 11 11
10 11 11 11 10 9 7 7 3 2 2 1 2 3 3 4 4 4 3 4 5 5 6 7 7 7 8 9 10 10 10 10 11 12 11 12 12 13 14 13 13 12 11
9 10 11 11 10 9 8 7 5 2 2 2 2 2 3 3 3 4 4 4 5 5 5 6 7 8 9 9 9 10 11 10 10 12 12 13 13 13 13 14 13 13 15
9 10 10 10 10 8 8 8 6 3 2 2 2 2 3 3 3 3 4 5 5 6 6 6 7 8 8 9 9 9 10 10 10 11 12 12 12 13 13 14 14 14 14
9 9 11 11 11 11 9 8 6 3 2 3 2 2 2 2 3 4 4 5 6 6 6 6 7 7 8 8 8 9 9 10 10 10 11 12 12 13 12 12 14 15 16
11 8 10 11 11 10 9 8 7 5 4 3 2 2 2 2 3 3 3 4 5 6 6 7 7 7 7 8 8 8 9 9 9 10 10 11 12 13 13 12 13 16 15
12 10 9 10 11 11 11 10 9 8 7 7 4 2 2 2 3 2 2 3 4 5 6 7 8 7 7 8 8 9 10 9 10 11 11 11 12 13 14 13 13 12 16
13 12 8 10 10 11 11 11 10 11 11 10 8 8 7 4 3 3 3 3 4 5 6 9 9 10 9 9 9 10 11 10 11 10 12 11 12 11 14 13 13 14 13
14 13 11 9 10 10 11 11 12 12 12 11 10 9 9 8 7 4 4 5 8 8 7 8 11 11 10 11 10 10 11 11 11 11 11 11 11 11 13 14 14 14 14
14 14 13 11 11 11 11 12 12 12 12 12 11 11 10 10 11 9 9 8 7 7 8 9 9 11 11 10 10 12 11 11 11 12 12 11 11 12 12 13 13 13 14
15 14 14 13 12 12 12 12 12 12 12 11 11 11 11 11 11 11 11 10 7 7 9 8 8 10 10 11 10 10 11 11 12 12 12 12 12 12 12 12 13 14 15
16 15 15 15 13 13 13 14 13 12 13 13 13 12 12 11 11 11 11 11 11 10 8 8 8 9 10 11 11 12 12 13 13 13 12 12 12 12 12 13 13 14 15
17 17 16 16 15 15 15 15 15 15 13 14 14 13 12 11 11 11 11 11 11 11 11 11 12 12 11 11 12 11 12 12 12 13 13 13 12 12 12 12 13 14 14
18 18 17 16 16 15 16 15 16 15 14 14 14 13 12 12 12 12 11 11 11 11 11 11 11 12 13 10 10 11 12 12 12 12 13 13 13 12 11 11 11 12 13
19 19 18 17 17 16 15 16 16 16 16 15 14 14 13 13 13 12 12 12 11 11 11 11 11 11 11 9 9 10 12 12 12 12 13 13 13 13 12 11 11 12 11
19 19 18 18 17 16 16 15 16 16 17 16 16 16 15 14 14 13 13 12 12 12 12 11 11 11 11 8 8 9 11 11 12 12 12 13 13 12 12 12 13 13 12
20 19 19 18 17 17 16 16 17 17 17 17 17 17 17 16 15 15 14 13 13 12 12 12 11 11 11 8 8 9 11 11 11 12 12 12 13 12 11 12 13 13 13
23 22 21 19 19 19 17 17 18 18 18 18 17 17 17 17 18 18 17 15 13 13 12 12 12 11 11 9 8 8 10 11 12 11 11 11 11 11 11 12 13 14 14
25 24 23 23 22 20 19 20 20 21 19 18 18 18 18 18 18 18 18 18 18 16 15 14 14 13 12 11 9 8 10 11 12 11 12 11 10 10 9 10 12 12 13
23 22 24 24 24 21 21 21 22 21 21 20 18 18 18 17 18 20 19 20 19 19 19 19 16 14 13 11 9 8 9 9 11 12 12 11 9 9 8 9 10 10 11
20 21 23 23 23 23 22 22 22 22 22 22 20 19 19 17 18 20 20 20 20 20 19 18 19 18 14 12 9 9 9 9 11 11 11 10 9 8 8 9 9 11 11
19 19 21 21 21 21 21 22 22 23 25 23 22 20 20 19 18 18 18 20 20 20 19 19 20 20 17 15 12 10 10 10 12 11 11 10 10 9 10 10 10 12 12
18 19 21 20 21 21 22 24 23 25 23 22 21 21 20 21 20 19 20 17 18 17 15 18 21 22 21 16 12 11 11 13 12 12 11 11 11 12 12 12 12 13 13
19 20 21 21 22 23 24 24 28 29 29 23 22 22 22 22 21 21 20 15 13 12 12 12 13 18 13 12 11 11 10 10 10 14 15 15 13 13 12 13 13 13 13